Miscellaneous Local Product
Issued by NWS Hastings, NE

Home | Current Version | Previous Version | Graphics & Text | Print | Product List | Glossary On
Versions: 1 2 3 4 5 6 7 8 9 10 11 12 13 14 15 16 17 18 19 20 21 22 23 24 25 26 27 28 29 30 31 32 33 34 35 36 37 38 39 40 41 42 43 44 45 46 47 48 49 50
008
AXUS43 KGID 240702
MISGRI

GID CWA HOURLY WEATHER ROUNDUP
NATIONAL WEATHER SERVICE HASTINGS NE
200 AM CDT SUN JUL 24 2016

NOTE: "FAIR" INDICATES FEW OR NO CLOUDS BELOW 12,000 FEET WITH NO
SIGNIFICANT WEATHER AND/OR OBSTRUCTIONS TO VISIBILITY.

...SOUTH CENTRAL NEBRASKA...

CITY           SKY/WX    TMP DP  RH WIND       PRES   REMARKS
GRAND ISLAND   CLEAR     77  71  82 N8        29.91R
HASTINGS       CLEAR     77  74  90 N9        29.91R
KEARNEY        PTCLDY    75  66  73 N10       29.94R
ORD            PTCLDY    75  62  64 N13       29.94R
YORK           CLEAR     73  72  94 CALM      29.88R
AURORA         CLEAR     77  76  96 N10       29.89R
LEXINGTON      PTCLDY    74  63  69 N9        29.96S
HOLDREGE       CLEAR     73  68  83 N7        29.93S
HEBRON         CLOUDY    73  69  88 CALM      29.87R

...NEBRASKA PANHANDLE...

CITY           SKY/WX    TMP DP  RH WIND       PRES   REMARKS
CHADRON        CLEAR     60  52  74 W3        30.06R
ALLIANCE       PTCLDY    64  56  75 S5        30.09R
SCOTTSBLUFF    CLEAR     68  56  65 NE5       30.07S
SIDNEY         CLOUDY    71  54  54 SE9       30.10F

...WESTERN AND NORTH CENTRAL NEBRASKA...

CITY           SKY/WX    TMP DP  RH WIND       PRES   REMARKS
VALENTINE      MOCLDY    63  57  81 SW3       30.02R
AINSWORTH      PTCLDY    66  60  82 CALM      30.01R
ONEILL         PTCLDY    69  65  86 NW6       29.98R
BROKEN BOW     CLEAR     73  60  63 N14       29.97S
IMPERIAL       LGT RAIN  73  62  68 E9        30.03S
NORTH PLATTE   PTCLDY    72  59  63 E7        30.00R
MCCOOK         CLOUDY    75  66  73 N10       29.96R

...EASTERN NEBRASKA...

CITY           SKY/WX    TMP DP  RH WIND       PRES   REMARKS
NORFOLK        CLEAR     79  68  69 N17       29.88R
SO SIOUX CITY  PTCLDY    79  76  90 NW5       29.83R
TEKAMAH        CLEAR     77  74  90 S5        29.82R
COLUMBUS       CLEAR     79  70  73 N7        29.87S
ALBION         CLEAR     76  70  80 N10       29.92R
OMAHA EPPLEY   PTCLDY    82  74  76 SE3       29.83R
OFFUTT AFB     CLOUDY    77  75  93 S3        29.83R
MILLARD        CLEAR     80  75  86 CALM      29.83R
LINCOLN        CLEAR     78  72  81 W3        29.85R
NEBRASKA CITY  CLOUDY    78  72  80 S7        29.84S
BEATRICE       CLOUDY    78  70  77 W3        29.85S
FALLS CITY     CLOUDY    81  72  74 S8        29.84S

...NORTHERN KANSAS...

CITY           SKY/WX    TMP DP  RH WIND       PRES   REMARKS
GOODLAND       MOCLDY    74  58  57 NW9       30.02F
HILL CITY      CLOUDY    76  69  79 N12       29.89S
NORTON         SUNNY     75  66  73 N8        29.91
SMITH CENTER   CLEAR     75  61  60 SE6       29.86S
BELOIT         CLEAR     75  66  73 CALM      29.85S
HAYS           MOCLDY    82  57  42 S8        29.88S
RUSSELL        CLOUDY    86  61  42 S16       29.85F
CONCORDIA      CLOUDY    82  68  62 S13       29.86R
SALINA         PTCLDY    87  67  51 S13       29.85R HX  90
TOPEKA         CLOUDY    85  69  58 S9        29.85S



USA.gov is the U.S. government's official web portal to all federal, state and local government web resources and services.